METEOR 2-19

导读

METEOR 2-19是独联体(CIS)发射的第二代“流星”极轨气象卫星,于1990年6月27日发射入轨,属于苏联/俄罗斯Meteor系列的最后一批第二代卫星之一。该卫星运行在约900公里高度的近极轨道,主要负责获取全球气象观测数据,传输云图信息,为气象预报和气候研究提供支撑,延续了流星二号系列持续监测大气环境的任务。

Basic Information
目录编号:
20670
目录名称:
METEOR 2-19
国际标识:
1990-057A
轨道中心:
EARTH
卫星名称:
METEOR 2-19
卫星全名:
--
卫星状态:
在轨 (已飞行13135 天)
发射日期:
1990-06-27 UTC
国别 :
俄罗斯(独联体) (CIS)
星等 :
--
Orbit Information
数据来源 国际轨道数据 AOE轨道数据
星历时间 2026-06-13T02:34:23+0800
8小时前
查看轨道信息
2026-06-12T04:00:00+0800
1天前
查看轨道信息
半长轴 7324.712km 7324.713km
偏心率 0.0017301 0.0017248
轨道倾角 82.546° 82.547°
近地点辐角 94.351° 96.368°
升交点赤经 282.334° 283.081°
平近点角 265.963° 257.389°
近地点 933.902km 933.942km
远地点 959.248km 959.21km
周期 103.979分钟 103.979分钟
每日圈数 13.848953 13.84895
Detailed Information
使用方式:
暂无
2D Orbit Map
3D Orbit Map
Orbit Altitude Analysis Chart
Orbit Inclination Analysis Chart
Orbit Comprehensive Analysis Chart
View Comprehensive Chart